TimePDT,TemperatureF,Dew PointF,Humidity,Sea Level PressureIn,VisibilityMPH,Wind Direction,Wind SpeedMPH,Gust SpeedMPH,PrecipitationIn,Events,Conditions,WindDirDegrees,DateUTC
12:55 AM,49.6,18.9,30,30.13,10.0,Calm,Calm,-,N/A,,Clear,0,2012-10-27 07:55:00
1:55 AM,48.4,19.8,32,30.12,10.0,Calm,Calm,-,N/A,,Clear,0,2012-10-27 08:55:00
2:55 AM,50.2,18.5,29,30.12,10.0,NE,3.5,-,N/A,,Clear,40,2012-10-27 09:55:00
3:55 AM,48.9,21.0,33,30.12,10.0,Calm,Calm,-,N/A,,Clear,0,2012-10-27 10:55:00
4:55 AM,49.8,17.1,27,30.12,10.0,NE,5.8,-,N/A,,Clear,50,2012-10-27 11:55:00
5:55 AM,46.4,20.3,36,30.13,10.0,Calm,Calm,-,N/A,,Clear,0,2012-10-27 12:55:00
6:55 AM,45.7,19.9,36,30.14,10.0,Calm,Calm,-,N/A,,Clear,0,2012-10-27 13:55:00
7:55 AM,48.6,19.9,32,30.15,10.0,Calm,Calm,-,N/A,,Clear,0,2012-10-27 14:55:00
8:55 AM,52.5,19.6,27,30.16,10.0,Calm,Calm,-,N/A,,Clear,0,2012-10-27 15:55:00
9:55 AM,56.3,20.3,25,30.15,10.0,SW,5.8,-,N/A,,Clear,230,2012-10-27 16:55:00
10:55 AM,63.3,18.0,17,30.14,10.0,Calm,Calm,-,N/A,,Clear,0,2012-10-27 17:55:00
11:55 AM,67.3,15.8,14,30.11,10.0,Calm,Calm,-,N/A,,Clear,0,2012-10-27 18:55:00
12:55 PM,69.8,16.3,13,30.08,10.0,Calm,Calm,-,N/A,,Clear,0,2012-10-27 19:55:00
1:55 PM,70.9,16.5,13,30.05,10.0,Calm,Calm,-,N/A,,Clear,0,2012-10-27 20:55:00
2:55 PM,73.8,16.5,11,30.02,10.0,South,3.5,-,N/A,,Clear,170,2012-10-27 21:55:00
3:55 PM,73.9,17.4,12,30.02,10.0,SSW,3.5,-,N/A,,Clear,210,2012-10-27 22:55:00
4:55 PM,73.8,18.5,12,30.00,10.0,South,4.6,-,N/A,,Clear,190,2012-10-27 23:55:00
5:55 PM,71.4,20.1,14,30.01,10.0,South,4.6,-,N/A,,Clear,190,2012-10-28 00:55:00
6:55 PM,66.0,23.0,20,30.04,10.0,NNW,4.6,-,N/A,,Clear,340,2012-10-28 01:55:00
7:55 PM,62.1,24.4,24,30.04,10.0,Calm,Calm,-,N/A,,Clear,0,2012-10-28 02:55:00
8:55 PM,59.5,24.3,26,30.05,10.0,Calm,Calm,-,N/A,,Clear,0,2012-10-28 03:55:00
9:55 PM,59.4,22.8,25,30.06,10.0,Calm,Calm,-,N/A,,Clear,0,2012-10-28 04:55:00
10:55 PM,54.5,24.1,31,30.06,10.0,NNE,4.6,-,N/A,,Clear,30,2012-10-28 05:55:00
11:55 PM,56.1,23.5,28,30.06,10.0,NE,3.5,-,N/A,,Clear,50,2012-10-28 06:55:00